Wind_Speed
33 34 37 40 42 43 41 38 38 35 30 27 28 30 33 33 34 34 32 29 28 29 32 31 31 36 37 35 32 30 30 31 29 26 25 25 25 26 28 30 31 29 27 26 25 26 28 27 27 27 27 26 25 23 21 20 19 18 18 17 16 16 18 18 19 19 19 19 19 20 20 19 20 20 21 20 20 20 20 21 22 23 23 23 22 22
34 37 41 43 40 39 38 35 33 33 32 28 26 28 32 34 34 32 29 27 27 30 32 30 29 34 37 35 32 31 31 30 29 27 26 26 25 24 25 28 30 29 28 26 26 28 30 29 28 28 29 29 28 25 23 21 19 18 19 19 18 19 19 18 18 19 19 18 19 19 19 19 21 21 21 21 21 22 22 22 22 22 23 22 22 22
30 39 42 41 39 36 35 33 31 32 33 31 28 27 30 33 32 29 26 26 26 29 30 28 29 34 35 35 34 32 32 29 28 29 27 26 26 24 22 23 26 27 27 26 26 28 31 31 30 29 30 30 29 27 26 24 21 20 20 19 20 20 20 19 18 18 18 18 18 19 19 20 21 22 22 22 23 23 22 21 22 21 22 22 22 22
24 36 42 38 36 37 35 33 31 32 33 32 31 30 31 31 28 25 25 25 26 29 30 30 32 36 35 36 37 32 30 29 28 30 29 27 26 23 22 22 24 25 23 23 24 25 29 32 34 33 31 30 29 29 29 26 24 22 21 20 20 21 20 20 19 19 18 18 19 19 20 20 21 22 22 23 22 21 20 20 19 19 19 20 20 21
28 27 35 40 39 38 36 34 34 33 33 33 33 33 33 30 27 25 23 24 26 28 30 29 31 40 40 38 39 34 30 31 29 30 30 27 25 24 24 24 24 24 23 23 22 22 24 29 34 35 33 31 30 30 30 28 26 24 22 21 21 21 21 21 21 20 20 20 21 21 21 22 22 22 22 22 20 19 18 18 17 18 19 20 20 21
41 26 25 34 39 39 38 36 35 34 35 35 35 36 34 30 27 25 24 23 24 26 27 22 18 27 34 35 37 34 33 34 31 31 31 27 26 26 26 25 24 25 24 24 23 23 24 25 29 34 35 34 32 30 30 29 28 27 24 23 23 23 22 22 22 22 22 23 23 23 23 23 23 23 23 21 19 18 19 19 19 20 21 21 22 22
47 38 28 28 31 36 38 37 35 34 35 37 38 36 33 32 29 26 25 23 21 20 21 18 13 18 28 33 33 31 32 34 33 34 33 30 29 28 28 27 25 25 24 24 24 24 25 25 27 31 34 35 33 30 30 30 29 29 28 26 24 24 24 24 24 24 24 25 24 24 24 24 24 24 22 21 20 21 21 22 22 23 23 23 23 23
44 47 41 35 31 31 36 39 38 36 37 40 41 36 34 35 32 28 26 24 23 21 18 18 18 21 32 41 38 33 34 33 33 34 33 33 33 31 30 28 26 25 24 24 24 24 25 26 27 30 32 34 34 33 33 32 31 32 31 29 27 26 26 26 26 26 26 26 25 25 24 24 24 23 22 21 21 22 23 24 24 24 24 24 24 24
41 45 45 44 39 34 38 42 40 39 41 42 39 35 35 33 32 31 25 23 25 22 21 25 22 17 28 41 39 37 41 39 35 32 31 32 32 32 30 27 26 25 25 25 25 26 27 28 29 29 31 34 35 35 35 34 34 34 33 32 31 29 28 28 27 27 27 27 26 26 26 25 24 23 23 22 22 23 24 24 25 25 25 25 25 25
34 38 41 45 47 43 41 40 38 40 42 42 37 33 34 30 30 29 22 24 24 18 21 31 28 17 23 40 41 39 43 41 35 30 29 30 30 31 31 29 28 27 27 29 29 29 29 30 30 30 31 34 36 36 35 35 35 37 37 36 35 33 31 29 28 29 28 28 28 28 27 26 25 25 24 24 24 24 25 25 26 26 26 26 26 26
32 33 35 39 40 38 37 37 39 42 41 41 36 33 31 27 29 28 24 25 17 13 27 37 35 23 18 32 37 41 45 40 34 31 28 27 26 28 29 30 30 29 30 32 32 32 31 30 32 31 32 33 35 36 36 36 36 37 38 39 38 35 33 32 30 30 29 29 30 29 28 28 26 27 26 26 26 26 26 26 27 27 27 28 28 28
35 33 35 39 37 35 35 38 41 41 40 36 30 32 28 20 24 24 22 21 7 9 30 39 39 31 22 23 22 27 38 35 32 30 25 24 24 25 26 27 30 32 33 34 33 33 31 30 31 32 31 30 31 34 36 36 37 38 39 40 40 38 36 35 33 31 30 30 30 30 29 29 28 28 28 27 27 27 28 27 28 28 28 28 27 27
40 41 39 38 39 39 37 37 38 36 39 35 27 29 22 10 11 12 10 10 6 16 28 26 25 28 35 44 36 33 42 40 36 33 28 28 28 26 26 26 28 31 34 35 35 35 31 30 31 31 30 29 30 32 34 35 37 39 40 41 42 40 37 37 35 33 32 31 31 30 29 29 29 29 29 28 28 28 28 28 28 29 27 27 27 27
38 40 41 39 39 43 42 41 39 37 41 41 35 32 25 10 3 6 6 3 8 23 28 20 17 19 31 44 40 40 44 41 38 34 30 30 28 26 27 28 30 32 34 35 35 37 34 31 31 31 30 30 30 32 33 35 36 39 41 42 43 41 39 38 37 35 34 32 31 30 30 30 30 30 30 29 28 27 28 28 28 27 27 26 25 25
32 29 40 45 44 46 48 48 48 45 43 45 46 41 34 22 10 6 7 6 10 16 17 15 12 11 22 29 26 29 34 33 32 28 25 24 20 18 20 22 25 28 30 34 36 36 32 31 31 31 31 30 31 32 33 33 34 36 40 42 43 42 40 39 38 37 36 34 32 32 31 31 31 31 30 29 28 27 27 27 26 26 26 25 24 24
35 32 41 48 48 48 47 48 50 44 36 40 46 42 39 36 26 12 7 12 15 9 8 14 15 20 36 43 37 32 33 34 30 24 20 18 15 14 15 16 19 21 23 28 34 34 29 29 32 32 32 32 31 32 32 31 30 31 35 38 41 41 41 40 39 38 37 36 35 34 33 32 32 31 30 29 28 27 26 26 26 26 25 25 25 25
28 31 38 41 43 47 46 46 47 44 39 39 43 46 48 46 36 20 9 10 10 6 10 16 21 32 41 46 47 41 38 37 33 29 25 22 22 22 23 25 27 27 24 21 25 30 30 31 33 33 33 33 33 32 31 30 28 27 30 34 38 40 41 41 40 40 39 38 37 36 35 33 33 32 31 30 29 28 28 28 28 27 27 27 26 26
22 24 33 36 39 44 45 44 45 48 47 41 41 48 48 40 35 26 9 1 4 4 9 15 27 35 30 33 39 36 35 36 31 31 31 30 30 30 31 33 34 34 28 22 21 25 29 32 32 33 32 32 32 32 30 29 28 27 27 31 35 39 41 42 42 41 41 40 40 38 37 35 34 34 33 32 31 31 31 30 29 29 28 27 27 28
26 22 25 32 37 40 42 42 42 47 50 48 46 46 39 28 25 27 15 4 5 4 4 14 27 32 35 41 40 32 35 35 28 27 27 25 25 25 28 33 36 35 31 27 25 25 26 29 29 30 30 29 29 29 28 27 28 27 27 29 32 36 39 42 43 42 42 42 42 41 40 39 38 37 35 34 34 34 34 32 30 31 30 29 30 30
35 25 22 29 35 35 38 44 46 47 49 50 48 43 40 33 25 28 28 16 9 5 5 10 13 23 44 56 50 45 47 42 32 26 23 22 22 22 24 27 28 27 25 23 23 24 24 25 27 28 28 27 27 27 27 26 26 26 26 27 30 32 36 39 41 42 42 43 44 43 43 42 41 40 39 38 38 38 37 34 34 34 33 33 33 33
41 32 24 24 29 33 38 44 50 53 51 51 50 44 43 40 28 26 31 27 17 7 4 5 6 26 49 50 43 43 42 37 32 28 28 29 29 29 29 27 22 20 22 23 23 24 24 24 26 27 26 26 26 26 27 27 26 26 26 27 28 29 32 35 36 37 37 38 41 43 43 43 42 42 42 41 41 41 39 38 37 37 37 37 37 36
44 40 35 28 29 37 42 44 48 54 56 56 57 55 53 50 38 22 17 26 29 18 11 7 8 33 50 41 37 38 33 32 31 29 32 31 28 30 32 29 25 27 30 31 29 28 27 26 26 25 25 25 26 26 26 26 27 28 28 27 27 27 28 29 30 31 32 33 35 37 39 41 42 43 43 43 42 41 40 39 39 39 39 39 38 39
49 46 42 37 35 37 41 44 44 47 54 57 57 58 55 51 46 30 15 24 34 31 29 18 11 36 55 46 43 45 39 38 35 31 32 29 26 31 34 33 33 36 37 34 30 27 25 25 25 23 24 24 25 26 25 26 26 27 28 27 27 26 25 26 27 28 28 29 30 31 33 36 38 40 41 41 40 40 38 38 37 38 38 38 37 38
49 44 40 37 37 39 41 45 47 47 50 53 54 56 52 48 51 46 35 33 33 33 35 19 10 39 62 53 51 51 44 44 41 35 32 29 26 28 31 36 38 36 33 28 24 21 19 21 23 23 23 23 24 26 25 25 25 25 25 25 24 23 23 24 25 25 26 26 26 27 28 31 32 34 36 36 36 36 35 35 35 35 35 35 35 35
49 46 41 30 22 24 28 31 36 43 49 54 56 57 55 53 52 49 42 34 26 31 37 19 12 43 64 56 52 51 45 45 42 35 31 28 26 25 26 30 32 29 26 21 18 18 17 19 21 22 23 23 24 25 25 26 25 24 24 23 22 22 22 23 23 23 23 23 23 24 24 26 27 29 30 30 31 32 32 32 33 33 33 33 33 33
50 48 47 33 15 12 16 21 33 44 49 52 56 57 56 54 53 51 47 36 25 32 41 32 29 53 66 57 51 47 42 42 37 28 27 28 27 27 27 27 29 27 25 21 19 19 19 20 21 23 24 24 24 24 24 25 25 25 25 24 24 24 23 22 22 21 21 21 21 21 21 22 23 24 25 26 27 27 28 29 29 30 30 31 31 32
51 49 51 47 38 35 32 32 40 49 47 46 50 55 59 59 59 58 51 43 39 39 42 44 49 59 65 60 57 50 41 39 33 24 25 28 26 26 26 27 29 28 26 24 23 22 22 22 21 21 23 23 23 24 23 23 23 23 24 24 25 25 24 23 22 22 21 21 21 20 20 21 21 22 23 23 23 24 24 25 25 26 27 27 28 28
53 51 54 55 54 55 49 37 33 36 41 47 52 57 62 62 62 60 53 52 53 40 34 46 54 57 63 64 61 55 45 38 34 28 28 29 27 23 22 23 25 25 26 28 28 27 25 24 22 20 19 20 22 23 24 24 23 23 23 23 24 24 24 24 23 23 23 23 22 22 22 22 22 23 22 22 23 23 23 24 24 24 25 25 26 26
54 53 57 59 59 61 59 50 40 32 32 41 49 54 60 61 61 62 62 64 62 46 44 57 58 58 65 64 60 61 54 43 37 34 33 32 26 23 23 25 25 26 28 31 31 30 28 26 25 23 20 22 23 24 24 24 25 25 24 24 24 23 24 24 24 23 23 23 22 22 23 23 23 23 23 23 24 24 24 24 24 24 24 24 24 23
52 52 53 54 57 61 61 58 55 46 35 34 37 43 51 57 59 61 63 66 64 56 58 63 58 59 64 61 60 64 59 49 41 36 34 31 28 26 25 28 29 29 31 34 33 32 30 27 26 26 26 27 28 27 25 24 25 25 25 25 25 25 25 24 23 23 22 21 21 22 22 22 23 23 23 23 23 22 22 22 22 22 21 21 21 20
51 51 49 47 47 52 57 57 56 54 48 41 37 36 41 48 52 56 60 62 61 59 62 63 60 64 64 60 62 63 57 51 46 39 35 32 28 28 29 32 35 34 34 35 34 33 33 32 31 33 33 33 31 29 26 25 24 24 25 26 26 27 26 25 24 23 22 21 21 21 21 21 21 21 21 21 20 20 19 19 19 19 19 19 20 20
53 51 48 43 38 42 51 50 49 52 50 48 47 43 41 43 46 51 58 62 62 61 62 63 64 65 64 62 65 65 60 57 54 47 42 39 36 35 36 38 40 40 38 37 36 34 35 36 37 38 38 36 34 31 27 26 25 24 24 25 26 28 27 26 25 24 23 22 20 20 20 19 19 19 19 19 19 19 19 19 20 20 20 21 21 21
57 53 49 42 35 41 51 49 49 47 37 38 51 53 49 49 50 51 56 61 65 63 59 62 65 64 63 64 66 66 65 64 62 56 52 51 50 47 44 45 44 42 41 40 39 39 39 39 40 41 41 39 36 32 28 26 26 24 23 25 27 27 26 26 25 24 23 22 20 20 20 20 20 20 20 20 20 20 20 21 21 22 21 22 22 22
56 54 53 46 36 40 49 46 41 31 20 31 55 62 56 53 53 55 57 59 64 66 64 65 68 66 65 65 64 65 67 67 66 63 59 59 58 54 53 53 48 45 44 43 43 44 43 43 44 44 43 41 38 34 30 29 29 27 25 26 27 26 26 25 25 24 23 22 22 22 22 22 22 22 22 22 22 22 22 23 23 23 22 22 23 23
54 52 50 47 41 39 41 37 23 12 19 39 54 55 52 50 48 52 56 56 60 65 66 67 69 66 64 64 63 64 68 67 64 64 61 59 59 58 57 56 52 50 48 44 43 45 43 42 43 42 42 41 39 36 33 33 32 30 29 29 28 27 27 27 27 27 25 25 25 25 25 25 25 25 25 25 24 24 24 24 24 24 24 24 25 25
51 52 47 42 37 29 26 26 14 5 19 39 45 45 44 39 36 40 47 49 52 58 64 68 69 67 64 64 65 67 69 67 64 65 64 62 60 58 57 56 53 51 48 43 40 41 39 37 38 38 40 40 38 36 35 34 34 33 32 32 31 30 30 30 30 29 28 29 28 28 29 28 28 28 28 27 27 27 27 27 27 27 27 27 26 25
35 43 47 41 34 27 20 21 19 13 17 29 37 41 44 43 45 48 49 49 48 49 57 65 64 65 65 64 63 66 68 69 69 68 66 63 61 58 56 52 48 47 46 42 38 38 37 36 36 37 38 38 37 36 34 33 34 34 34 34 35 34 32 31 31 30 30 32 32 32 32 32 32 32 32 31 31 31 30 30 30 30 29 28 26 25
19 25 34 32 30 31 23 15 14 13 16 27 36 39 39 39 42 42 42 48 49 43 46 56 58 59 61 59 61 66 68 69 71 69 64 60 60 58 55 52 48 46 44 39 36 36 36 35 35 35 36 37 37 35 33 33 34 36 36 36 37 36 34 32 30 29 30 31 33 34 35 36 36 36 36 36 35 34 34 33 32 32 31 29 27 25
17 17 21 19 19 25 21 11 8 9 17 30 37 38 35 31 31 27 25 41 56 46 38 45 52 55 57 58 63 67 66 68 72 69 64 62 61 58 56 53 48 45 43 40 38 36 34 32 32 32 35 38 38 35 33 34 36 38 38 38 39 38 36 32 29 28 28 29 30 32 34 35 36 36 36 36 35 35 34 33 32 31 29 27 26 25
21 19 21 20 19 21 18 12 10 12 18 24 25 24 23 22 25 21 15 32 56 49 36 38 44 48 53 57 62 65 65 68 70 66 64 63 59 55 53 51 48 48 47 45 42 40 37 34 33 34 36 37 37 35 35 36 37 39 40 40 40 39 36 32 29 29 29 28 29 30 30 31 32 32 32 32 32 31 31 29 29 28 26 25 25 25
22 22 22 25 27 25 19 13 12 17 22 22 18 16 13 9 15 23 22 35 49 44 36 36 36 37 42 46 52 57 57 57 57 57 59 60 57 53 51 49 50 50 49 46 45 45 43 39 38 38 38 36 35 35 35 36 36 38 39 41 41 38 34 32 32 31 31 30 29 29 29 28 28 28 28 28 28 28 28 28 27 27 25 24 24 25
22 20 19 24 26 24 22 19 17 19 24 24 21 19 16 13 18 24 27 33 36 33 30 29 29 31 32 32 37 41 41 40 41 44 48 49 50 50 47 46 47 47 43 42 43 44 43 42 42 42 40 37 36 35 36 36 36 37 40 41 39 36 34 34 34 34 33 32 31 30 29 28 27 26 25 25 26 26 27 27 28 27 26 25 25 26
19 16 16 22 24 19 17 16 11 14 23 25 22 21 21 19 20 21 23 23 24 26 24 22 24 28 27 28 30 32 32 32 32 34 36 36 37 37 35 36 39 38 37 38 40 41 43 42 42 42 41 38 37 36 37 37 37 39 41 40 37 35 35 36 36 36 36 34 33 31 30 28 26 25 24 24 25 25 26 27 28 29 28 27 26 27
17 17 17 20 20 16 15 15 13 17 22 21 17 17 18 18 19 20 21 19 21 25 25 23 23 24 24 26 28 29 29 29 29 31 34 33 31 30 29 30 32 33 35 37 39 42 44 43 43 42 41 40 39 38 38 37 37 40 41 38 35 36 38 38 37 38 37 35 33 32 30 28 26 25 24 24 25 25 26 27 29 30 30 29 28 28
16 17 17 17 17 16 16 16 18 21 23 22 21 20 19 20 22 24 25 24 23 25 26 25 24 22 21 23 25 27 28 28 27 28 29 30 30 30 29 30 30 30 32 35 39 43 45 45 44 43 43 43 41 40 40 38 38 40 40 37 36 38 39 38 38 38 37 35 34 32 30 28 27 26 25 25 25 26 27 28 29 31 31 31 30 30
14 13 14 15 15 16 19 20 21 23 26 26 26 25 23 24 25 26 28 28 27 26 26 25 24 22 22 23 25 27 27 25 25 25 24 26 28 30 31 32 31 30 29 30 34 39 42 44 45 44 45 44 42 42 43 41 40 41 40 39 39 40 40 39 38 37 36 35 33 32 31 29 28 27 27 27 27 28 28 29 30 31 32 32 32 32
16 14 15 16 16 17 21 22 21 23 26 25 24 24 26 28 29 29 30 32 32 31 30 28 24 21 21 22 24 25 26 26 26 26 26 28 30 33 35 37 37 37 36 33 32 33 35 39 42 44 45 45 45 45 45 43 43 43 43 43 43 41 40 39 37 36 35 34 33 32 31 30 28 28 28 28 28 29 29 30 30 31 32 33 33 34
17 16 18 21 22 23 23 21 19 20 23 23 24 24 24 25 27 28 29 32 32 32 33 31 26 22 22 23 24 27 28 27 28 29 31 33 35 37 38 39 41 43 42 40 39 37 37 37 38 40 42 44 45 46 47 48 48 46 45 45 44 42 41 39 36 35 35 34 33 33 32 31 30 30 30 29 29 29 30 30 31 31 33 34 35 35
19 20 22 22 22 24 25 22 19 21 22 21 20 20 20 20 21 22 24 28 30 29 30 30 28 26 25 26 27 30 31 30 30 32 34 37 38 38 38 40 42 44 45 45 44 42 42 42 40 39 39 41 43 46 48 50 49 47 46 45 44 43 41 38 36 36 35 35 35 34 33 32 32 31 31 31 31 30 30 31 31 32 34 35 36 37
25 26 25 23 24 25 24 20 18 21 22 20 18 20 22 23 23 22 22 25 28 28 27 28 29 29 29 29 29 32 34 33 31 32 35 38 38 37 38 41 42 42 43 46 47 46 45 43 41 39 38 39 42 45 48 48 47 46 46 46 44 43 41 38 37 37 37 36 36 35 34 33 33 33 33 32 32 32 32 32 32 33 34 35 36 36
30 29 26 26 27 27 25 22 22 25 27 24 23 24 26 26 26 25 24 25 28 29 28 29 30 31 31 32 32 33 36 35 32 33 37 38 36 34 34 37 39 39 39 41 45 46 45 42 40 38 37 38 39 42 44 45 44 44 44 44 43 42 40 38 38 38 37 36 36 35 34 34 34 34 34 34 34 33 33 34 34 34 34 35 35 34
Wind_Direction
200 202 207 212 214 215 217 220 223 229 233 236 238 239 239 239 241 241 238 238 240 246 251 253 257 257 253 253 253 255 260 261 258 255 254 255 255 256 258 261 263 261 259 257 253 249 247 246 245 244 245 246 248 247 244 243 244 246 249 251 251 249 248 247 245 244 243 241 241 241 242 245 247 248 250 249 249 248 247 247 246 246 247 249 251 254
202 204 209 214 217 219 221 222 225 230 233 236 238 239 240 240 243 244 242 239 240 247 253 255 260 258 252 249 249 254 258 254 251 252 253 256 259 259 259 260 263 264 263 259 254 250 247 246 245 244 244 244 246 248 248 246 245 244 245 248 249 249 248 247 248 248 248 247 246 246 246 245 246 247 247 245 243 243 243 243 244 246 249 252 254 256
209 211 212 216 219 221 222 223 225 229 231 234 236 239 240 241 242 242 238 236 237 245 253 256 260 259 253 248 247 251 255 249 245 250 252 255 261 262 260 259 261 263 264 262 258 253 248 245 244 245 244 244 245 247 248 247 244 241 241 242 244 248 250 250 250 250 250 250 249 249 247 244 242 242 243 243 242 242 242 243 246 249 253 258 261 264
212 215 214 217 220 222 223 222 223 227 229 232 236 240 240 239 236 230 228 230 235 244 254 259 265 264 257 251 247 246 250 246 241 247 250 253 259 261 260 259 260 261 262 263 261 257 251 244 241 243 245 246 245 245 246 247 245 244 243 244 245 247 249 250 251 250 249 249 249 249 248 245 243 242 243 244 245 246 249 251 255 259 262 264 266 267
220 213 215 219 222 224 224 224 224 224 228 233 239 241 242 238 230 225 226 232 240 247 255 264 273 270 261 254 251 246 247 247 242 244 247 249 255 259 260 259 260 263 263 263 263 263 259 249 241 241 244 247 246 243 243 245 246 246 246 246 246 246 247 248 249 249 248 246 247 248 248 247 247 248 249 252 255 258 259 260 261 262 261 260 260 261
227 216 213 220 224 224 225 227 225 224 229 234 238 240 240 239 232 229 230 237 249 253 256 261 273 274 266 258 255 252 250 248 245 246 246 246 252 256 259 262 263 264 264 265 265 264 262 257 248 242 242 244 246 244 243 244 245 245 244 243 244 244 243 244 246 246 246 246 246 247 248 249 250 251 253 256 259 260 259 256 256 256 255 255 256 257
231 227 227 228 226 225 227 230 228 227 230 233 238 239 238 238 234 233 236 240 249 254 258 257 252 271 275 265 258 256 255 251 247 247 247 246 249 253 258 264 266 264 262 263 265 264 263 261 255 248 244 244 246 246 245 245 244 243 242 240 241 242 242 242 242 243 245 246 247 248 250 251 251 252 253 255 256 257 257 256 255 255 256 257 258 259
234 232 233 233 229 224 225 228 228 227 228 235 241 240 237 238 235 237 243 244 247 253 260 260 255 267 273 268 262 259 259 256 250 248 248 248 249 252 255 260 264 262 259 260 263 267 266 261 257 253 249 247 247 248 247 247 246 244 242 240 238 240 241 241 241 242 244 246 247 249 250 251 251 253 253 253 253 255 256 258 258 259 260 261 262 263
233 231 231 229 224 222 224 226 228 227 230 236 241 241 239 238 238 241 243 242 247 256 260 256 254 261 269 269 268 265 263 259 254 251 250 251 251 251 250 253 258 258 255 257 263 269 267 261 257 254 250 248 247 247 247 248 248 246 243 240 237 236 238 240 241 243 243 245 247 248 249 250 250 252 252 253 253 255 257 259 262 264 265 265 266 266
230 231 233 228 220 220 226 229 229 230 234 237 238 241 241 237 240 241 239 240 243 249 255 253 248 247 269 270 268 267 265 261 258 256 256 256 257 254 250 249 252 253 253 257 265 271 268 261 255 253 250 246 245 245 245 246 246 245 243 240 238 236 235 237 239 241 243 244 246 247 248 250 251 253 253 254 254 256 259 261 264 266 267 267 267 267
233 232 229 227 225 227 235 237 232 230 233 236 235 238 240 236 236 236 233 236 237 241 248 251 246 240 266 275 268 264 263 264 264 262 261 262 262 262 257 252 251 252 254 258 266 272 270 261 254 252 252 249 247 246 246 245 245 244 242 240 239 237 235 235 236 238 240 242 245 246 249 250 252 254 256 256 258 259 261 263 264 265 266 266 267 267
232 232 225 229 234 234 237 238 237 233 230 230 227 227 229 224 226 229 229 228 218 247 247 249 247 236 240 259 264 266 265 266 268 267 268 268 268 269 266 259 254 253 255 258 264 269 268 261 254 252 253 252 249 248 248 248 247 245 242 239 238 237 236 236 236 237 239 241 244 246 248 250 252 255 257 258 260 262 263 264 264 264 264 265 266 267
226 230 230 231 231 227 229 230 232 235 229 225 220 215 211 198 212 215 219 226 224 241 246 250 241 228 240 252 256 262 265 268 271 273 275 273 272 270 266 259 254 253 254 256 261 264 265 262 255 252 253 252 249 248 249 250 250 248 244 239 236 235 235 237 237 237 238 240 243 245 248 250 252 253 255 256 258 260 262 264 264 264 265 265 265 266
220 229 228 227 225 223 224 223 222 227 227 224 219 209 200 188 193 208 206 229 236 240 246 247 230 226 249 260 263 263 265 270 273 275 277 275 274 270 261 254 252 251 252 254 258 261 263 260 255 251 251 251 251 251 252 253 254 253 249 242 235 232 233 235 236 237 238 240 242 244 246 247 249 250 252 254 256 258 260 262 263 263 264 265 266 267
211 222 221 221 223 221 222 226 230 233 229 225 221 214 208 202 194 205 205 207 229 242 245 228 211 226 248 256 266 269 268 270 273 276 275 274 273 265 257 252 252 255 255 252 252 256 258 254 251 249 249 250 251 252 254 256 257 256 251 245 238 232 231 234 236 238 239 240 242 244 245 246 248 249 251 252 254 256 258 260 261 262 263 265 268 269
210 218 222 223 226 225 223 226 229 228 224 226 221 215 218 218 214 220 227 227 232 246 243 216 212 237 247 252 256 261 265 266 268 269 262 261 262 257 260 267 271 273 270 260 253 251 251 249 247 247 248 250 251 253 255 258 261 259 253 246 240 234 232 234 237 238 240 241 241 242 244 245 247 249 250 251 253 255 257 258 259 260 262 265 267 269
213 221 227 225 225 227 227 228 228 223 222 222 214 214 225 225 219 221 236 234 221 238 249 233 239 250 255 259 257 253 257 260 261 261 255 255 260 262 265 271 276 277 278 274 258 247 245 247 249 248 248 251 253 255 258 260 262 262 254 246 240 235 233 235 237 239 240 242 242 243 243 244 246 247 249 250 251 254 255 256 258 260 262 264 267 269
221 225 228 224 224 227 228 230 232 229 226 220 215 223 228 222 216 218 225 173 166 238 256 236 247 253 254 263 262 256 257 258 260 263 262 260 259 261 263 264 266 268 269 270 263 251 246 247 249 251 250 252 254 256 258 260 261 261 255 248 241 236 234 236 239 240 241 243 243 244 243 243 244 245 247 248 250 252 253 255 258 260 262 264 267 269
226 231 234 229 229 230 227 226 225 224 223 221 226 231 222 210 211 211 207 203 196 219 268 238 245 250 246 252 259 259 260 261 263 265 261 257 256 260 265 264 264 266 267 267 265 260 254 250 251 253 253 253 254 256 257 257 258 259 257 252 247 243 241 241 243 245 246 246 246 246 245 245 245 245 247 248 249 251 253 256 259 261 262 264 266 268
224 228 235 232 232 230 222 217 217 219 219 220 226 228 219 215 214 208 208 214 209 208 260 248 243 249 252 255 258 261 262 262 261 254 243 246 257 265 272 272 266 259 258 261 264 261 256 252 251 251 253 252 252 253 253 253 255 256 256 253 250 248 247 247 248 249 250 251 251 251 250 249 249 250 250 250 251 253 256 258 260 261 262 263 265 268
223 225 232 231 226 219 212 212 218 221 217 214 217 217 216 216 212 214 219 218 216 216 244 258 254 253 257 261 263 264 265 264 257 246 241 250 260 264 267 268 259 245 246 256 262 263 261 256 252 251 252 253 253 252 251 251 251 251 251 251 251 249 249 249 251 252 252 252 252 252 252 253 253 253 253 253 254 256 259 261 262 262 263 262 264 267
223 226 230 227 215 211 217 225 230 229 222 218 217 216 216 213 205 208 219 216 219 224 223 227 261 260 261 265 266 265 268 268 262 254 254 257 256 257 259 258 254 251 256 264 266 268 270 264 256 252 252 253 253 253 251 250 249 247 247 248 249 249 249 250 250 251 252 251 251 251 251 252 253 254 255 256 258 260 261 262 263 263 263 264 265 266
224 226 228 229 224 222 228 232 231 229 226 225 223 219 218 213 204 204 209 211 216 223 231 237 262 264 262 263 266 266 265 265 265 261 261 261 252 247 248 250 256 259 264 271 272 271 270 264 256 252 250 249 250 251 251 250 249 248 248 248 249 250 251 251 251 250 251 250 251 251 250 251 252 254 256 257 258 260 261 262 263 263 264 266 266 267
223 224 227 231 234 234 233 229 224 222 221 222 222 219 217 214 210 213 217 216 213 215 224 231 252 259 261 263 264 266 265 264 264 261 261 261 252 244 243 248 256 263 267 270 268 264 258 254 253 252 250 247 246 249 251 251 249 247 247 248 250 251 251 251 250 250 250 250 250 250 250 250 252 253 255 257 258 260 261 261 262 263 264 266 267 268
220 220 222 225 234 236 232 227 222 217 213 215 220 219 218 218 215 215 217 221 223 219 220 217 232 254 261 265 262 262 263 262 263 260 256 252 247 245 248 250 253 260 266 264 257 252 245 243 247 250 252 252 249 249 250 252 252 250 249 248 248 249 249 249 250 249 249 249 248 248 248 249 250 251 253 254 255 256 257 258 260 261 263 265 267 268
221 219 219 218 215 217 219 222 225 221 214 212 217 217 217 217 215 214 216 217 223 225 221 217 230 248 256 260 259 260 259 257 259 257 246 238 242 253 256 253 252 257 262 259 251 249 247 245 244 246 251 255 256 256 256 255 256 255 254 252 250 250 250 250 250 249 249 249 248 248 249 249 250 251 252 252 253 254 255 256 258 260 262 264 266 268
224 223 222 222 223 226 226 227 230 228 220 214 215 217 217 218 218 217 215 215 220 226 225 223 231 244 251 254 255 256 256 255 255 247 235 237 252 265 262 255 253 256 258 253 248 249 250 247 243 243 248 253 257 262 264 264 263 259 256 255 253 253 254 254 254 254 253 253 252 251 250 249 249 250 250 251 251 252 253 256 258 261 263 265 267 269
224 226 227 227 229 230 231 233 236 234 228 222 220 220 219 219 218 216 215 219 222 223 229 232 232 239 249 252 251 251 252 255 253 244 242 252 262 263 259 254 252 254 252 246 246 252 251 244 243 247 253 259 261 263 265 267 267 265 261 257 254 253 253 254 255 256 255 254 254 252 250 249 249 249 249 250 252 253 255 257 260 262 264 266 268 270
220 225 228 230 233 234 234 236 240 241 237 230 226 224 222 220 218 216 218 222 223 220 229 236 233 236 247 253 253 252 252 253 255 255 256 260 252 238 244 254 255 254 250 247 250 255 253 248 250 253 261 273 275 270 266 264 263 263 262 260 258 256 254 255 255 254 254 253 251 250 249 249 249 250 250 251 253 255 256 258 260 262 264 266 268 270
221 224 225 226 232 236 235 236 240 242 241 236 231 228 225 224 222 220 221 223 224 224 230 237 239 240 248 255 257 256 255 253 255 258 256 250 236 227 242 258 259 254 251 253 258 261 261 262 259 259 267 277 282 278 272 265 260 259 259 259 259 258 256 256 255 254 254 252 250 248 248 248 248 248 249 249 250 252 254 256 259 261 264 266 269 270
225 228 229 227 231 236 235 235 236 236 236 238 238 235 231 230 229 226 225 225 226 227 230 236 240 242 249 257 256 255 256 253 251 251 246 239 231 233 246 258 263 262 257 260 264 264 264 267 266 267 273 279 281 280 277 271 263 258 256 256 255 255 254 254 253 251 250 247 246 246 246 246 246 246 247 248 250 252 255 258 261 263 265 266 269 271
225 229 232 231 233 239 239 238 237 237 239 242 243 242 240 240 239 233 228 227 227 228 230 232 236 243 252 256 253 251 253 253 251 248 243 239 239 245 252 257 264 268 266 265 266 264 263 266 268 271 275 280 282 282 279 273 266 260 256 255 253 252 251 251 251 249 247 246 246 247 246 246 247 249 250 251 253 255 257 260 262 263 264 265 268 270
224 226 228 226 227 236 240 241 242 242 242 242 243 246 247 247 248 243 235 230 229 228 229 232 237 247 253 254 253 253 253 253 252 250 248 248 251 255 257 257 261 267 270 270 270 270 268 268 270 273 275 278 281 282 279 271 265 262 258 256 255 253 252 252 251 251 251 250 250 250 250 250 250 251 253 253 254 255 257 259 260 261 263 266 269 271
221 222 224 223 224 235 239 239 240 236 231 240 247 251 252 250 248 244 239 237 234 231 231 234 241 249 252 253 256 258 257 258 258 257 255 255 257 258 259 259 261 265 270 272 273 274 272 270 271 274 276 277 277 279 277 269 266 267 263 259 259 257 256 256 254 254 254 253 252 252 252 252 252 253 253 253 254 257 258 260 260 262 265 269 271 273
222 220 220 219 220 229 231 226 224 223 230 242 249 250 249 250 249 246 246 245 242 238 236 236 242 248 252 254 257 259 259 260 262 261 259 258 259 259 260 262 262 262 266 270 272 273 273 273 273 274 274 275 274 274 272 267 266 267 265 263 261 259 257 256 255 254 254 252 251 251 252 253 253 254 254 255 257 259 260 262 263 265 268 271 273 275
224 222 220 215 214 218 211 201 200 239 238 239 244 244 242 242 243 243 246 249 250 248 243 241 245 251 254 255 256 256 258 259 259 260 261 261 261 260 261 262 262 262 265 269 271 273 272 271 271 271 272 273 270 266 264 262 262 263 263 264 262 259 257 256 256 255 254 253 251 251 251 252 253 254 255 257 259 260 261 263 265 267 270 272 274 273
220 223 223 218 217 218 208 203 215 236 237 234 237 241 243 245 244 243 246 258 268 264 250 245 249 253 254 255 256 256 257 257 257 260 262 262 262 263 264 265 265 265 265 266 268 268 267 266 266 266 266 264 260 256 254 255 256 257 259 261 260 260 259 258 258 257 256 255 254 253 253 254 254 255 256 257 259 260 262 264 266 268 270 272 271 269
208 215 219 218 219 220 216 213 218 224 237 239 240 245 250 250 251 250 251 260 271 272 257 249 252 255 256 257 256 254 253 254 257 260 262 261 261 262 264 266 267 264 261 261 263 263 263 265 266 264 261 255 249 246 245 247 250 252 255 256 257 259 259 258 259 259 258 257 255 255 255 255 255 256 257 259 261 262 264 266 266 268 269 270 269 267
212 212 218 220 223 219 213 213 219 222 239 243 244 249 250 248 250 249 245 252 258 265 267 260 257 258 260 259 256 253 252 253 256 261 262 261 261 263 265 267 268 265 262 264 264 261 260 264 264 261 258 252 245 241 240 242 245 249 253 255 256 257 258 259 260 260 260 258 255 254 254 255 256 257 258 261 262 264 266 266 266 266 266 266 265 265
220 221 222 224 228 226 218 222 234 231 235 240 243 243 244 249 248 231 221 249 257 262 272 269 263 263 264 261 256 254 253 254 259 265 268 268 270 270 270 270 269 267 268 268 265 259 258 262 260 256 253 253 249 244 242 242 244 248 252 254 255 257 259 262 264 264 263 261 258 258 258 257 258 258 259 261 262 263 265 264 263 262 261 261 261 261
219 222 223 225 229 230 224 226 242 242 235 234 233 230 232 240 220 208 221 251 257 262 271 272 272 273 270 263 259 259 260 263 269 274 274 274 276 275 273 273 272 272 272 268 264 261 258 258 258 255 253 255 254 250 247 246 246 249 252 253 255 258 263 266 267 267 266 266 265 265 263 260 259 258 258 259 260 261 261 260 259 258 256 255 255 256
213 215 220 226 231 232 230 232 246 255 249 245 246 246 248 240 221 228 251 263 264 268 273 274 279 282 279 274 270 270 272 275 279 281 278 278 279 277 274 273 271 271 269 263 259 258 256 255 256 253 251 253 254 253 252 251 250 251 252 254 257 261 265 267 267 268 268 268 269 269 265 260 258 257 257 258 258 257 256 255 255 255 254 252 251 252
215 212 217 227 230 229 225 223 232 251 253 254 253 250 249 246 243 258 277 279 272 274 276 276 281 284 286 285 282 280 281 282 284 285 284 284 283 278 274 270 268 267 262 255 252 251 252 253 252 249 249 252 254 255 255 254 253 252 252 254 258 262 264 265 266 267 268 268 269 268 264 259 257 257 257 257 257 256 254 253 253 252 252 251 250 250
223 217 218 227 228 219 213 217 229 243 251 257 257 250 251 255 258 269 281 280 273 273 272 271 274 279 283 285 283 283 284 284 284 284 284 283 281 277 273 270 268 265 259 252 250 249 250 250 248 244 245 248 251 253 254 255 254 252 250 253 257 258 260 263 264 265 266 267 267 264 260 256 256 256 257 257 258 258 257 255 252 250 248 248 249 249
225 224 226 230 230 229 235 241 247 250 251 256 257 254 255 257 256 262 271 273 270 269 268 269 269 269 272 278 279 277 277 279 283 285 284 280 274 273 273 272 268 266 261 255 251 248 246 245 242 241 242 245 248 250 251 251 251 250 249 251 253 255 257 259 261 263 264 264 261 258 255 254 253 255 256 257 258 258 258 257 253 248 246 245 246 248
228 233 239 243 245 251 253 249 246 246 249 254 259 260 260 259 257 260 264 266 267 270 271 271 268 263 263 270 276 276 276 278 281 281 279 276 271 269 269 268 266 265 263 258 253 250 247 244 243 241 241 242 244 246 247 248 248 247 248 249 251 252 254 256 258 260 260 258 256 253 251 250 250 252 254 255 256 257 257 257 255 249 244 242 243 246
231 234 240 245 248 252 252 248 246 249 252 256 262 264 262 261 261 261 262 264 269 274 276 275 273 266 260 262 270 275 277 276 274 273 273 274 274 271 268 266 263 263 263 260 256 253 250 248 247 246 244 243 243 243 244 245 245 245 246 248 250 251 251 253 255 256 255 252 250 249 248 247 247 249 250 251 252 253 255 256 255 250 244 241 242 246
235 237 240 243 244 247 253 255 253 252 254 257 262 265 266 266 267 267 267 269 275 280 281 279 276 268 257 254 261 268 271 269 269 271 273 273 275 275 272 268 264 262 262 260 258 257 255 252 250 249 248 247 245 243 242 241 243 244 246 248 250 250 250 251 251 250 249 247 246 245 245 244 244 245 246 248 249 249 251 252 252 249 245 242 244 247
238 236 237 242 246 248 252 255 256 257 258 262 270 278 284 287 287 284 278 273 274 278 279 276 272 264 255 251 254 259 261 262 266 271 272 272 273 273 272 269 264 261 259 258 258 259 258 257 255 254 253 250 246 243 240 239 240 243 245 247 248 248 247 247 246 245 244 243 243 244 243 242 243 243 244 245 246 246 247 248 248 247 245 244 246 249
238 238 238 240 245 248 251 256 268 274 271 270 278 287 292 297 299 296 288 276 271 273 276 277 273 265 257 251 250 253 256 258 262 266 268 269 273 276 275 272 268 265 260 257 256 257 258 258 258 258 258 255 250 245 241 238 237 239 243 245 245 245 245 243 241 241 241 241 242 242 242 242 242 242 243 243 244 244 245 245 246 246 246 247 249 252
237 242 245 248 252 256 257 261 271 277 277 278 283 288 292 296 299 300 297 287 276 273 275 279 278 274 265 255 249 251 255 256 256 260 264 268 274 279 279 276 272 269 264 258 254 255 258 259 258 258 260 258 251 243 238 234 234 236 239 240 241 242 242 241 240 240 241 241 241 242 242 241 241 242 242 243 243 244 245 246 247 248 249 250 252 253
Height
3123 3124 3124 3123 3124 3127 3130 3134 3137 3139 3141 3144 3146 3146 3146 3146 3147 3150 3153 3155 3155 3153 3150 3150 3150 3148 3147 3149 3152 3153 3153 3153 3153 3153 3153 3154 3155 3155 3155 3155 3156 3157 3158 3161 3162 3162 3161 3162 3163 3163 3163 3164 3165 3166 3168 3169 3170 3171 3172 3173 3173 3174 3174 3175 3175 3176 3176 3177 3178 3179 3180 3181 3182 3182 3183 3183 3184 3184 3185 3185 3186 3186 3187 3187 3188 3188
3120 3120 3119 3121 3124 3128 3132 3135 3138 3139 3141 3143 3144 3144 3145 3145 3146 3149 3152 3153 3153 3150 3147 3148 3147 3145 3145 3146 3149 3149 3148 3149 3150 3150 3150 3151 3152 3152 3152 3153 3153 3154 3155 3157 3158 3158 3158 3159 3160 3160 3161 3161 3162 3163 3165 3166 3168 3169 3170 3171 3171 3171 3172 3173 3174 3174 3175 3176 3176 3177 3178 3179 3179 3179 3180 3180 3181 3181 3182 3183 3183 3184 3184 3185 3185 3185
3117 3116 3118 3122 3126 3128 3131 3134 3137 3138 3140 3141 3142 3143 3142 3143 3145 3148 3149 3150 3150 3147 3145 3146 3144 3142 3143 3143 3144 3145 3145 3147 3148 3147 3148 3148 3148 3149 3150 3150 3150 3151 3152 3153 3154 3154 3155 3156 3157 3157 3157 3158 3159 3161 3162 3163 3165 3166 3167 3168 3169 3169 3170 3171 3172 3172 3173 3174 3174 3175 3175 3176 3176 3176 3177 3177 3178 3178 3179 3180 3181 3182 3182 3183 3183 3183
3113 3114 3118 3123 3125 3126 3129 3132 3135 3136 3138 3139 3139 3140 3139 3141 3144 3145 3147 3148 3148 3146 3144 3144 3141 3138 3140 3139 3139 3142 3143 3144 3145 3144 3145 3145 3145 3146 3147 3148 3147 3148 3149 3150 3151 3151 3151 3152 3153 3154 3155 3156 3157 3158 3158 3160 3162 3163 3164 3166 3167 3167 3168 3169 3169 3170 3171 3172 3172 3172 3173 3174 3174 3174 3175 3175 3176 3177 3178 3179 3180 3181 3181 3181 3181 3181
3112 3113 3118 3122 3123 3124 3128 3131 3133 3134 3135 3136 3137 3137 3138 3140 3143 3144 3146 3147 3146 3145 3143 3143 3139 3132 3134 3136 3135 3140 3141 3139 3141 3142 3141 3142 3143 3143 3143 3144 3145 3145 3146 3147 3148 3149 3149 3149 3150 3150 3152 3153 3154 3154 3155 3157 3159 3160 3162 3163 3164 3164 3165 3166 3167 3167 3168 3169 3169 3170 3170 3171 3172 3173 3173 3174 3175 3176 3177 3177 3178 3178 3178 3178 3178 3178
3111 3113 3117 3120 3121 3123 3127 3128 3130 3132 3132 3134 3134 3135 3137 3140 3142 3143 3145 3145 3144 3143 3141 3144 3139 3126 3127 3133 3132 3136 3137 3136 3138 3138 3138 3140 3140 3140 3140 3141 3142 3143 3143 3144 3145 3146 3146 3146 3147 3147 3149 3149 3150 3151 3153 3154 3156 3157 3159 3160 3161 3161 3162 3163 3164 3164 3165 3165 3166 3167 3167 3168 3169 3170 3171 3172 3173 3174 3174 3174 3175 3174 3175 3175 3175 3175
3107 3112 3115 3117 3119 3122 3125 3126 3128 3130 3131 3130 3130 3133 3138 3139 3140 3141 3142 3143 3142 3140 3138 3142 3139 3127 3122 3127 3130 3132 3132 3132 3134 3134 3135 3137 3137 3137 3137 3138 3139 3140 3140 3141 3141 3142 3143 3143 3144 3144 3145 3146 3147 3148 3150 3151 3152 3153 3155 3156 3157 3158 3159 3160 3161 3161 3161 3162 3163 3163 3164 3166 3166 3167 3168 3170 3171 3171 3171 3171 3171 3172 3172 3172 3172 3173
3102 3108 3112 3115 3118 3120 3121 3122 3124 3127 3128 3126 3126 3132 3136 3136 3138 3139 3140 3141 3139 3138 3138 3138 3139 3131 3118 3117 3125 3129 3127 3128 3129 3130 3132 3133 3133 3134 3135 3135 3136 3136 3137 3138 3138 3138 3139 3139 3140 3141 3142 3143 3144 3146 3147 3148 3149 3149 3151 3152 3154 3155 3156 3157 3157 3158 3158 3159 3160 3161 3162 3162 3163 3164 3166 3167 3167 3168 3168 3168 3168 3169 3169 3169 3170 3170
3098 3103 3107 3110 3114 3116 3116 3117 3121 3125 3125 3123 3126 3131 3134 3135 3137 3137 3138 3139 3138 3138 3136 3134 3139 3133 3114 3110 3121 3124 3122 3122 3124 3127 3129 3129 3130 3131 3132 3132 3132 3133 3134 3134 3134 3135 3135 3135 3136 3137 3137 3139 3140 3141 3142 3144 3145 3146 3147 3148 3149 3150 3151 3153 3154 3155 3156 3156 3157 3158 3158 3159 3160 3161 3162 3163 3164 3164 3165 3165 3166 3166 3166 3167 3167 3167
3098 3101 3104 3106 3108 3110 3113 3117 3121 3123 3123 3123 3127 3130 3132 3135 3135 3136 3137 3137 3138 3136 3131 3131 3136 3132 3112 3104 3116 3119 3114 3116 3120 3124 3126 3126 3127 3128 3128 3129 3129 3130 3130 3130 3130 3130 3131 3131 3131 3132 3132 3133 3135 3136 3138 3139 3140 3141 3142 3143 3144 3145 3147 3149 3150 3151 3152 3153 3153 3154 3155 3156 3157 3158 3159 3160 3161 3161 3161 3162 3163 3163 3163 3163 3163 3164
3097 3100 3103 3103 3105 3109 3113 3117 3119 3121 3123 3125 3128 3129 3131 3133 3133 3134 3135 3135 3137 3130 3126 3126 3130 3132 3115 3099 3105 3111 3109 3113 3117 3120 3122 3123 3124 3124 3124 3125 3125 3126 3126 3126 3126 3126 3127 3127 3127 3128 3128 3129 3131 3132 3133 3134 3135 3136 3137 3138 3139 3141 3143 3144 3146 3147 3148 3149 3150 3151 3152 3153 3154 3155 3155 3156 3157 3158 3158 3159 3159 3159 3159 3159 3160 3160
3095 3096 3098 3100 3104 3108 3112 3114 3115 3118 3122 3124 3126 3126 3129 3131 3131 3132 3133 3133 3133 3124 3120 3121 3123 3129 3116 3095 3097 3106 3106 3111 3114 3116 3119 3120 3120 3121 3121 3121 3121 3121 3121 3122 3122 3122 3123 3123 3124 3124 3124 3126 3127 3128 3128 3129 3131 3131 3132 3133 3135 3137 3138 3140 3141 3143 3144 3145 3146 3148 3149 3150 3151 3151 3152 3152 3153 3154 3154 3155 3155 3155 3156 3156 3156 3156
3090 3091 3094 3097 3100 3104 3107 3110 3113 3116 3119 3122 3124 3124 3126 3129 3128 3129 3128 3128 3127 3120 3116 3117 3119 3119 3105 3091 3097 3103 3104 3108 3111 3113 3116 3115 3116 3117 3117 3117 3117 3117 3117 3118 3119 3119 3119 3120 3120 3121 3121 3122 3123 3123 3124 3125 3126 3126 3127 3128 3130 3132 3134 3136 3137 3139 3140 3141 3143 3144 3145 3146 3147 3147 3148 3149 3150 3150 3150 3151 3151 3151 3152 3152 3153 3153
3087 3088 3091 3093 3095 3098 3102 3104 3106 3108 3111 3114 3116 3117 3119 3122 3124 3124 3124 3125 3122 3116 3113 3115 3117 3111 3098 3091 3095 3098 3102 3106 3108 3110 3111 3111 3112 3112 3112 3113 3112 3113 3114 3114 3115 3115 3115 3116 3116 3117 3118 3119 3119 3119 3120 3121 3121 3122 3122 3124 3125 3128 3130 3131 3132 3134 3136 3137 3139 3141 3141 3143 3143 3143 3144 3145 3146 3147 3147 3147 3147 3148 3148 3149 3149 3150
3081 3082 3082 3084 3086 3089 3093 3095 3097 3099 3102 3105 3108 3112 3112 3113 3115 3115 3116 3117 3115 3112 3112 3113 3112 3103 3095 3092 3091 3095 3101 3105 3105 3107 3108 3107 3108 3108 3108 3108 3109 3109 3110 3110 3110 3111 3111 3112 3113 3113 3114 3115 3115 3116 3116 3117 3117 3117 3117 3119 3121 3124 3126 3126 3128 3130 3132 3134 3136 3136 3137 3139 3139 3140 3141 3142 3143 3143 3144 3144 3144 3145 3145 3146 3146 3147
3075 3074 3075 3079 3081 3084 3088 3091 3095 3099 3102 3103 3108 3111 3108 3107 3110 3111 3111 3111 3111 3112 3110 3107 3101 3094 3090 3089 3090 3094 3098 3101 3104 3105 3106 3106 3105 3105 3105 3105 3106 3106 3106 3106 3106 3107 3108 3109 3109 3110 3110 3111 3112 3112 3112 3113 3113 3113 3113 3114 3117 3120 3122 3123 3124 3126 3128 3130 3131 3132 3133 3135 3136 3136 3137 3139 3140 3140 3140 3141 3141 3142 3142 3143 3143 3143
3072 3072 3074 3078 3080 3082 3086 3089 3092 3095 3098 3100 3103 3103 3101 3104 3108 3110 3110 3108 3111 3111 3105 3100 3095 3091 3089 3084 3084 3092 3094 3098 3102 3102 3103 3104 3103 3103 3103 3103 3103 3103 3103 3103 3102 3104 3105 3105 3105 3106 3107 3108 3108 3109 3109 3110 3110 3110 3110 3111 3113 3116 3118 3119 3120 3122 3124 3125 3126 3127 3129 3130 3131 3133 3134 3135 3136 3137 3137 3137 3137 3138 3139 3139 3140 3140
3071 3071 3072 3075 3076 3079 3084 3088 3090 3091 3093 3095 3096 3096 3099 3104 3106 3107 3109 3108 3110 3109 3101 3096 3092 3090 3090 3080 3077 3087 3091 3094 3099 3099 3099 3100 3100 3100 3099 3100 3100 3099 3101 3101 3101 3102 3102 3102 3102 3103 3104 3105 3105 3106 3106 3107 3106 3106 3107 3108 3109 3111 3113 3114 3116 3118 3119 3120 3122 3123 3125 3126 3127 3128 3130 3131 3132 3132 3132 3133 3134 3135 3135 3136 3136 3136
3070 3071 3070 3072 3074 3077 3083 3087 3088 3087 3089 3090 3091 3094 3097 3099 3099 3102 3104 3103 3105 3104 3096 3090 3086 3085 3083 3075 3074 3083 3087 3090 3095 3096 3096 3095 3096 3096 3096 3096 3096 3096 3098 3098 3099 3099 3099 3100 3100 3100 3101 3102 3102 3103 3103 3104 3103 3104 3105 3105 3106 3108 3110 3111 3112 3113 3115 3115 3117 3119 3120 3122 3122 3124 3125 3127 3127 3127 3127 3129 3130 3131 3131 3132 3131 3132
3068 3069 3067 3069 3072 3075 3078 3080 3081 3081 3084 3087 3090 3092 3093 3093 3093 3094 3095 3095 3097 3098 3093 3087 3082 3076 3071 3069 3073 3079 3082 3087 3092 3093 3093 3092 3093 3093 3093 3093 3093 3093 3095 3095 3095 3096 3096 3097 3097 3097 3098 3098 3099 3100 3100 3101 3101 3101 3102 3102 3103 3105 3106 3107 3108 3109 3110 3111 3112 3114 3115 3117 3118 3119 3121 3122 3122 3122 3123 3125 3126 3126 3127 3127 3127 3127
3065 3065 3065 3066 3069 3069 3068 3069 3071 3072 3076 3079 3082 3083 3084 3088 3091 3092 3092 3092 3093 3093 3091 3088 3078 3066 3062 3067 3072 3076 3079 3083 3088 3089 3090 3090 3090 3090 3091 3091 3090 3090 3091 3092 3092 3092 3093 3094 3094 3095 3095 3096 3096 3097 3097 3097 3098 3098 3099 3099 3100 3102 3102 3103 3104 3105 3106 3107 3108 3109 3111 3112 3114 3115 3116 3117 3117 3118 3119 3121 3121 3122 3122 3122 3123 3123
3061 3061 3062 3063 3061 3061 3062 3064 3065 3066 3067 3070 3071 3071 3073 3077 3083 3086 3087 3087 3089 3088 3086 3085 3073 3057 3059 3066 3069 3073 3077 3079 3082 3085 3085 3087 3088 3088 3087 3088 3087 3087 3087 3088 3089 3089 3089 3090 3091 3092 3092 3093 3093 3093 3093 3094 3094 3095 3095 3096 3097 3098 3099 3100 3100 3101 3101 3102 3103 3104 3106 3108 3109 3110 3111 3111 3112 3113 3115 3116 3117 3117 3117 3117 3118 3118
3057 3058 3057 3057 3056 3057 3061 3062 3063 3064 3067 3068 3068 3068 3070 3073 3076 3078 3079 3080 3083 3082 3081 3083 3072 3054 3056 3065 3065 3068 3073 3075 3078 3080 3080 3083 3084 3084 3084 3084 3083 3083 3083 3084 3084 3086 3086 3087 3087 3088 3089 3090 3090 3090 3090 3090 3091 3091 3092 3093 3093 3094 3095 3096 3096 3097 3097 3098 3099 3100 3101 3102 3104 3105 3105 3107 3108 3109 3110 3111 3112 3112 3112 3112 3113 3113
3055 3054 3054 3055 3055 3056 3058 3058 3058 3061 3064 3064 3064 3065 3067 3069 3070 3071 3073 3074 3076 3075 3076 3080 3071 3054 3053 3061 3061 3063 3067 3070 3072 3075 3076 3079 3080 3082 3082 3081 3080 3080 3080 3081 3081 3082 3083 3084 3084 3085 3085 3086 3086 3087 3087 3087 3088 3088 3089 3090 3090 3091 3092 3092 3093 3093 3094 3095 3096 3096 3097 3098 3099 3100 3101 3102 3103 3104 3106 3106 3107 3107 3107 3107 3108 3108
3047 3047 3049 3052 3052 3052 3053 3054 3053 3055 3057 3055 3056 3059 3061 3064 3068 3070 3072 3074 3072 3069 3072 3074 3067 3053 3050 3056 3058 3058 3062 3063 3066 3070 3073 3075 3077 3079 3080 3079 3079 3079 3078 3079 3079 3079 3080 3081 3081 3082 3082 3083 3083 3083 3084 3084 3085 3086 3086 3087 3088 3088 3089 3089 3089 3090 3091 3091 3092 3093 3093 3094 3095 3095 3096 3098 3099 3100 3101 3101 3101 3102 3102 3102 3103 3103
3040 3040 3041 3042 3041 3040 3040 3041 3043 3046 3048 3047 3049 3053 3056 3059 3062 3063 3066 3067 3063 3063 3065 3063 3057 3049 3047 3051 3053 3054 3057 3058 3061 3066 3069 3071 3074 3076 3077 3077 3077 3077 3077 3077 3077 3077 3077 3078 3078 3079 3079 3079 3080 3080 3081 3081 3082 3083 3084 3084 3085 3085 3086 3086 3087 3087 3088 3088 3089 3089 3090 3091 3091 3092 3093 3093 3094 3095 3096 3096 3097 3097 3097 3098 3098 3098
3036 3035 3034 3034 3033 3032 3032 3034 3037 3039 3041 3042 3044 3047 3049 3051 3052 3055 3057 3055 3054 3057 3055 3052 3051 3048 3045 3047 3048 3048 3052 3055 3058 3063 3066 3068 3071 3073 3074 3074 3074 3075 3075 3074 3074 3074 3074 3075 3076 3076 3077 3077 3077 3077 3078 3078 3079 3080 3080 3081 3081 3082 3082 3083 3083 3084 3084 3085 3085 3086 3086 3087 3088 3088 3089 3090 3090 3091 3091 3092 3092 3093 3093 3093 3093 3094
3029 3027 3028 3030 3028 3028 3032 3035 3035 3035 3036 3038 3040 3040 3041 3044 3047 3050 3049 3047 3050 3053 3047 3046 3051 3047 3040 3041 3044 3045 3048 3051 3054 3059 3062 3064 3067 3069 3070 3071 3071 3072 3071 3071 3071 3071 3072 3073 3073 3073 3074 3075 3075 3075 3075 3076 3076 3076 3077 3077 3078 3078 3079 3080 3080 3080 3081 3081 3082 3082 3083 3083 3084 3084 3085 3086 3086 3087 3088 3088 3088 3089 3089 3089 3089 3089
3021 3019 3022 3025 3023 3025 3029 3030 3031 3032 3033 3033 3034 3035 3037 3040 3041 3041 3039 3040 3045 3044 3038 3040 3046 3042 3035 3037 3041 3043 3045 3048 3051 3055 3058 3060 3063 3064 3065 3067 3068 3068 3068 3068 3068 3069 3069 3070 3071 3071 3071 3071 3072 3072 3073 3073 3073 3073 3074 3074 3074 3075 3075 3076 3076 3077 3077 3078 3078 3079 3079 3080 3080 3081 3082 3082 3083 3083 3084 3084 3084 3085 3085 3085 3085 3085
3015 3013 3017 3021 3019 3020 3023 3025 3027 3030 3030 3030 3030 3032 3035 3036 3036 3036 3035 3037 3039 3038 3038 3040 3042 3039 3036 3037 3039 3040 3043 3046 3049 3052 3054 3056 3058 3060 3062 3063 3064 3065 3065 3065 3066 3067 3067 3068 3068 3068 3068 3068 3069 3069 3069 3070 3070 3070 3070 3071 3071 3071 3072 3072 3072 3073 3073 3074 3074 3075 3076 3076 3077 3077 3078 3078 3079 3079 3079 3080 3080 3080 3081 3081 3081 3082
3011 3009 3013 3018 3016 3014 3016 3021 3023 3024 3025 3026 3026 3028 3032 3033 3034 3035 3035 3036 3038 3037 3038 3039 3038 3034 3033 3034 3036 3038 3040 3044 3046 3047 3050 3053 3055 3057 3058 3060 3061 3061 3061 3062 3063 3064 3064 3064 3064 3064 3064 3065 3065 3065 3065 3065 3066 3067 3067 3068 3068 3068 3068 3068 3069 3070 3070 3071 3071 3072 3072 3073 3073 3074 3074 3074 3075 3075 3076 3076 3076 3077 3077 3078 3078 3079
3007 3007 3010 3015 3012 3008 3012 3017 3017 3019 3022 3019 3018 3022 3027 3029 3030 3031 3030 3031 3032 3031 3033 3034 3032 3027 3026 3029 3033 3034 3036 3038 3040 3043 3047 3050 3051 3053 3054 3055 3056 3056 3057 3058 3059 3060 3061 3060 3060 3060 3060 3061 3061 3061 3061 3061 3062 3063 3063 3064 3064 3064 3065 3065 3066 3066 3066 3067 3068 3068 3069 3069 3069 3070 3070 3071 3071 3072 3072 3073 3073 3074 3074 3074 3075 3075
3002 3003 3005 3009 3007 3004 3007 3010 3013 3018 3015 3005 3005 3014 3020 3022 3024 3025 3025 3026 3027 3028 3029 3027 3023 3021 3023 3027 3029 3029 3030 3031 3034 3037 3041 3044 3046 3048 3048 3049 3051 3053 3054 3054 3055 3056 3056 3056 3056 3056 3056 3057 3057 3057 3058 3057 3057 3059 3060 3060 3060 3060 3061 3061 3062 3062 3063 3063 3064 3064 3065 3065 3066 3066 3067 3067 3068 3068 3069 3069 3070 3070 3071 3071 3071 3071
2995 2997 3000 3003 3003 3001 3003 3008 3012 3010 2998 2992 3000 3009 3012 3015 3017 3017 3018 3020 3021 3023 3022 3021 3020 3022 3025 3025 3023 3023 3023 3026 3029 3033 3037 3039 3041 3043 3043 3044 3047 3049 3050 3050 3050 3051 3051 3052 3052 3052 3052 3052 3053 3054 3054 3053 3053 3054 3056 3056 3056 3057 3057 3057 3058 3058 3059 3059 3060 3060 3061 3061 3062 3063 3063 3064 3064 3065 3065 3066 3066 3067 3067 3067 3067 3068
2990 2992 2994 2997 2998 2997 3000 3005 3004 2994 2987 2994 3002 3004 3006 3011 3014 3014 3015 3016 3018 3019 3019 3020 3020 3019 3019 3018 3018 3019 3020 3022 3025 3027 3031 3034 3036 3037 3038 3039 3041 3043 3045 3046 3046 3045 3046 3048 3047 3047 3048 3048 3049 3050 3050 3049 3049 3050 3051 3051 3052 3053 3053 3053 3054 3054 3055 3056 3056 3057 3057 3058 3059 3059 3060 3060 3061 3061 3062 3062 3062 3063 3063 3063 3064 3064
2986 2988 2989 2991 2992 2993 2994 2994 2991 2987 2990 2997 2998 2997 3003 3008 3009 3011 3010 3009 3013 3014 3013 3013 3013 3012 3014 3016 3017 3019 3019 3019 3020 3020 3023 3026 3028 3030 3032 3033 3036 3038 3039 3041 3041 3041 3042 3043 3043 3043 3043 3044 3044 3044 3044 3045 3045 3045 3046 3047 3047 3048 3049 3049 3050 3050 3051 3052 3052 3053 3053 3054 3055 3055 3056 3056 3057 3057 3057 3058 3058 3059 3059 3059 3060 3060
2983 2984 2986 2986 2986 2987 2988 2986 2987 2989 2990 2990 2990 2993 2997 3000 3002 3004 3002 3000 3004 3006 3007 3008 3009 3009 3010 3011 3013 3015 3016 3015 3014 3013 3014 3018 3021 3024 3026 3029 3031 3033 3034 3036 3037 3037 3037 3038 3038 3038 3038 3038 3038 3038 3039 3041 3040 3040 3041 3042 3042 3043 3044 3045 3045 3046 3047 3047 3048 3049 3049 3050 3050 3051 3051 3052 3052 3053 3053 3054 3054 3055 3055 3056 3056 3056
2980 2981 2983 2983 2982 2983 2984 2984 2986 2986 2983 2983 2987 2990 2992 2996 2998 3001 3000 2995 2995 3000 3003 3004 3004 3002 3001 3004 3008 3011 3014 3013 3007 3002 3004 3010 3015 3019 3021 3024 3026 3027 3029 3031 3032 3032 3032 3033 3034 3034 3033 3032 3032 3033 3034 3035 3035 3035 3036 3037 3037 3038 3039 3040 3041 3042 3043 3043 3044 3044 3044 3044 3045 3045 3046 3046 3047 3048 3049 3049 3050 3050 3051 3051 3052 3053
2977 2978 2980 2981 2980 2981 2981 2980 2980 2980 2978 2982 2986 2987 2990 2993 2995 2998 2998 2989 2986 2993 2999 2999 2998 2996 2996 3000 3005 3008 3011 3009 2998 2990 2995 3004 3011 3015 3017 3019 3020 3021 3023 3026 3028 3028 3028 3029 3029 3029 3028 3027 3027 3028 3029 3030 3030 3030 3031 3032 3032 3033 3034 3036 3037 3038 3038 3038 3039 3039 3039 3039 3039 3040 3041 3041 3042 3043 3043 3044 3045 3045 3046 3047 3048 3049
2974 2976 2978 2979 2979 2979 2979 2978 2977 2977 2978 2980 2982 2984 2987 2989 2991 2994 2993 2985 2981 2988 2995 2996 2994 2992 2993 2999 3003 3003 3004 2999 2989 2987 2994 3001 3007 3011 3013 3014 3014 3016 3018 3020 3022 3023 3023 3024 3023 3023 3022 3022 3023 3024 3024 3024 3025 3025 3025 3026 3027 3027 3029 3031 3033 3033 3033 3033 3034 3034 3034 3034 3035 3035 3036 3036 3037 3038 3038 3039 3040 3040 3041 3043 3044 3044
2971 2973 2975 2976 2976 2976 2977 2976 2974 2974 2976 2978 2979 2981 2984 2987 2987 2985 2983 2983 2982 2985 2989 2992 2991 2989 2992 2996 2997 2995 2994 2992 2989 2990 2994 2997 3000 3003 3005 3006 3007 3009 3011 3012 3013 3014 3016 3017 3017 3017 3017 3018 3019 3019 3019 3019 3020 3020 3021 3021 3021 3023 3025 3027 3027 3027 3028 3028 3029 3029 3030 3030 3030 3030 3031 3031 3032 3033 3034 3034 3035 3036 3037 3038 3039 3040
2968 2970 2971 2972 2973 2974 2974 2975 2973 2972 2972 2974 2977 2979 2981 2983 2981 2978 2980 2983 2983 2983 2985 2987 2987 2988 2990 2991 2990 2988 2987 2988 2989 2989 2990 2991 2992 2995 2997 2998 2999 3000 3002 3003 3004 3005 3008 3009 3010 3011 3012 3013 3013 3014 3014 3015 3015 3015 3016 3016 3017 3020 3021 3021 3021 3022 3023 3023 3024 3024 3025 3025 3025 3026 3027 3027 3028 3028 3029 3030 3030 3031 3032 3033 3034 3035
2964 2967 2968 2968 2969 2970 2971 2972 2972 2970 2970 2971 2974 2976 2977 2977 2978 2978 2980 2981 2981 2980 2981 2981 2982 2985 2986 2984 2983 2981 2981 2983 2985 2985 2985 2986 2986 2987 2989 2990 2991 2992 2994 2996 2996 2997 2999 3001 3002 3004 3005 3007 3007 3008 3009 3009 3010 3010 3010 3011 3014 3016 3016 3016 3017 3017 3017 3018 3019 3019 3020 3020 3021 3022 3022 3023 3023 3024 3024 3025 3026 3026 3027 3028 3029 3030
2962 2963 2963 2963 2964 2965 2966 2967 2968 2968 2968 2969 2970 2972 2973 2974 2976 2977 2977 2977 2977 2977 2977 2977 2978 2979 2979 2979 2978 2976 2976 2978 2980 2980 2981 2982 2982 2983 2984 2985 2986 2987 2988 2989 2989 2990 2991 2992 2994 2996 2998 2999 3000 3001 3002 3003 3004 3005 3006 3008 3010 3011 3010 3011 3012 3012 3012 3013 3014 3015 3015 3016 3016 3017 3017 3018 3019 3019 3019 3020 3021 3022 3023 3023 3024 3025
2959 2960 2961 2961 2962 2963 2963 2963 2965 2966 2966 2966 2967 2969 2971 2972 2973 2973 2972 2972 2973 2974 2973 2972 2972 2974 2974 2974 2973 2972 2973 2974 2975 2976 2977 2978 2978 2979 2980 2981 2981 2982 2982 2983 2983 2983 2983 2985 2986 2988 2989 2991 2993 2994 2996 2997 2998 2999 3001 3004 3005 3005 3005 3006 3006 3007 3008 3008 3009 3010 3010 3011 3011 3012 3012 3013 3013 3014 3014 3015 3015 3016 3017 3018 3020 3020
2958 2960 2961 2961 2961 2962 2961 2961 2962 2963 2963 2964 2965 2967 2968 2969 2970 2970 2969 2969 2969 2970 2969 2968 2967 2968 2969 2968 2968 2969 2970 2971 2972 2972 2973 2973 2974 2974 2974 2975 2975 2976 2977 2977 2976 2976 2977 2978 2979 2980 2981 2983 2985 2987 2989 2991 2992 2994 2996 2998 2999 2999 3000 3000 3001 3002 3002 3003 3004 3005 3005 3006 3006 3007 3007 3008 3008 3009 3009 3010 3010 3011 3012 3013 3014 3015
2957 2958 2959 2959 2960 2959 2958 2958 2960 2961 2961 2962 2962 2964 2965 2966 2966 2967 2966 2965 2965 2966 2966 2964 2964 2964 2965 2964 2964 2964 2966 2967 2968 2967 2968 2969 2968 2969 2969 2969 2969 2969 2970 2971 2971 2971 2971 2971 2972 2973 2974 2976 2978 2979 2981 2983 2985 2987 2989 2991 2991 2992 2993 2994 2995 2996 2997 2997 2998 2999 3000 3001 3001 3002 3003 3003 3004 3005 3005 3005 3006 3007 3007 3008 3010 3011
2955 2956 2955 2955 2955 2955 2954 2955 2957 2957 2957 2958 2959 2959 2961 2962 2963 2964 2964 2963 2963 2963 2962 2961 2961 2960 2960 2960 2959 2959 2960 2962 2963 2962 2963 2963 2963 2963 2964 2964 2963 2963 2963 2964 2965 2965 2965 2965 2965 2966 2967 2969 2971 2973 2974 2976 2978 2980 2982 2983 2985 2986 2987 2988 2989 2990 2991 2992 2993 2993 2994 2995 2996 2997 2998 2999 3000 3000 3001 3001 3002 3002 3003 3004 3005 3006
2952 2952 2951 2951 2951 2951 2950 2951 2953 2953 2953 2954 2956 2956 2957 2958 2959 2959 2960 2960 2959 2959 2958 2957 2956 2955 2955 2955 2954 2954 2954 2956 2957 2958 2957 2956 2957 2958 2958 2958 2958 2957 2956 2957 2958 2958 2958 2959 2959 2960 2961 2963 2964 2966 2967 2969 2971 2973 2975 2977 2978 2980 2981 2982 2983 2985 2986 2986 2987 2988 2989 2990 2991 2992 2993 2994 2995 2996 2997 2997 2998 2998 2999 3000 3002 3003
2947 2947 2947 2948 2948 2947 2947 2948 2950 2949 2949 2950 2952 2952 2952 2953 2954 2953 2954 2954 2954 2953 2952 2951 2950 2950 2950 2950 2950 2949 2948 2950 2953 2953 2951 2951 2953 2953 2953 2953 2952 2950 2950 2950 2950 2951 2952 2952 2953 2954 2955 2956 2957 2959 2961 2963 2965 2967 2969 2970 2972 2974 2975 2976 2977 2979 2980 2981 2982 2983 2984 2985 2986 2987 2988 2989 2990 2991 2992 2993 2993 2994 2995 2997 2998 2999
2942 2943 2945 2945 2944 2943 2943 2945 2946 2945 2944 2945 2948 2948 2948 2948 2949 2948 2948 2948 2947 2947 2946 2945 2943 2943 2944 2945 2946 2945 2944 2945 2948 2948 2947 2947 2949 2949 2948 2947 2945 2944 2944 2943 2943 2944 2945 2946 2947 2948 2949 2950 2951 2952 2954 2956 2958 2961 2963 2965 2966 2968 2969 2970 2972 2973 2974 2976 2977 2978 2979 2979 2981 2982 2983 2984 2985 2986 2987 2988 2989 2990 2991 2992 2993 2994